Weather History for Imperial, CA

Change the Weather History Date:

Saturday, July 5, 2014

  Actual Average Record
Temperature  
Mean Temperature 94 °F -  
Max Temperature 106 °F 106 °F 115 °F (2007)
Min Temperature 84 °F 75 °F 64 °F (1955)
Cooling Degree Days 30    
Growing Degree Days 44 (Base 50)    
Moisture  
Dew Point 66 °F    
Average Humidity 41    
Maximum Humidity 65    
Minimum Humidity 25    
Precipitation  
Precipitation 0.00 in - - ()
Sea Level Pressure  
Sea Level Pressure 29.89 in    
Wind  
Wind Speed 7 mph (SE)    
Max Wind Speed 15 mph    
Max Gust Speed 18 mph    
Visibility 10 miles    
Events      
Averages and records for this station are not official NWS values.
T = Trace of Precipitation, MM = Missing Value Source: NWS Daily Summary

Daily Weather History Graph

Daily Weather History Graph

Search for Another Location

Airport:

Trip Planner

Search our weather history database for the weather conditions in past years. The results will help you decide how hot, cold, wet, or windy it might be!

Date:

Astronomy

Jul. 05, 2014 Rise Set
Actual Time 5:39 AM PDT 7:54 PM PDT
Civil Twilight 5:11 AM PDT 8:22 PM PDT
Nautical Twilight 4:36 AM PDT 8:57 PM PDT
Astronomical Twilight 3:58 AM PDT 9:34 PM PDT
Moon 1:11 PM PDT (7/5) 12:13 AM PDT (7/5)
Length of Visible Light 15h 11m
Length of Day
14h 14m
First Quarter, 53% of the Moon is Illuminated
Jul 5
First Quarter
Jul 12
Full
Jul 18
Last Quarter
Jul 26
New
Aug 3
First Quarter

Hourly Weather History & Observations

Time (PDT) Temp. Heat Index Dew Point Humidity Pressure Visibility Wind Dir Wind Speed Gust Speed Precip Events Conditions
12:53 AM 89.1 °F 91.3 °F 66.0 °F 46% 29.89 in 10.0 mi SW 4.6 mph - N/A   Clear
1:53 AM 88.0 °F 90.3 °F 66.0 °F 48% 29.89 in 10.0 mi Calm Calm - N/A   Clear
2:53 AM 87.1 °F 89.9 °F 66.9 °F 51% 29.90 in 10.0 mi ESE 3.5 mph - N/A   Clear
3:53 AM 84.0 °F 88.4 °F 70.0 °F 63% 29.90 in 10.0 mi ESE 4.6 mph - N/A   Clear
4:53 AM 84.0 °F 88.4 °F 70.0 °F 63% 29.91 in 10.0 mi SE 6.9 mph - N/A   Clear
5:53 AM 84.0 °F 89.0 °F 71.1 °F 65% 29.92 in 10.0 mi SSE 8.1 mph - N/A   Clear
6:53 AM 84.9 °F 90.1 °F 71.1 °F 63% 29.94 in 10.0 mi SE 9.2 mph - N/A   Clear
7:53 AM 87.1 °F 93.6 °F 72.0 °F 61% 29.95 in 10.0 mi SE 11.5 mph - N/A   Clear
8:53 AM 91.0 °F 97.6 °F 71.1 °F 52% 29.95 in 10.0 mi SE 8.1 mph - N/A   Clear
9:53 AM 93.9 °F 100.3 °F 70.0 °F 46% 29.95 in 10.0 mi East 11.5 mph - N/A   Clear
10:53 AM 97.0 °F 102.2 °F 68.0 °F 39% 29.95 in 10.0 mi SSE 6.9 mph - N/A   Clear
11:53 AM 100.0 °F 104.9 °F 66.9 °F 34% 29.94 in 10.0 mi East 10.4 mph - N/A   Clear
12:53 PM 100.0 °F 103.6 °F 64.9 °F 32% 29.92 in 10.0 mi ESE 6.9 mph 18.4 mph N/A   Clear
1:53 PM 104.0 °F 108.1 °F 64.9 °F 28% 29.89 in 10.0 mi East 11.5 mph - N/A   Clear
2:53 PM 104.0 °F 108.1 °F 64.9 °F 28% 29.86 in 10.0 mi ENE 9.2 mph 17.3 mph N/A   Clear
3:53 PM 104.0 °F 107.4 °F 64.0 °F 27% 29.83 in 10.0 mi Variable 6.9 mph - N/A   Clear
4:53 PM 105.1 °F 107.8 °F 63.0 °F 25% 29.81 in 10.0 mi ESE 8.1 mph - N/A   Clear
5:53 PM 104.0 °F 106.6 °F 63.0 °F 26% 29.81 in 10.0 mi ESE 12.7 mph - N/A   Clear
6:53 PM 102.0 °F 105.2 °F 64.0 °F 29% 29.82 in 10.0 mi SE 13.8 mph - N/A   Clear
7:53 PM 99.0 °F 100.5 °F 62.1 °F 30% 29.83 in 10.0 mi SSE 15.0 mph - N/A   Clear
8:53 PM 98.1 °F 99.1 °F 62.1 °F 30% 29.85 in 10.0 mi SSE 11.5 mph - N/A   Clear
9:53 PM 95.0 °F 96.0 °F 63.0 °F 34% 29.86 in 10.0 mi South 9.2 mph - N/A   Clear
10:53 PM 91.9 °F 91.5 °F 60.1 °F 34% 29.85 in 10.0 mi Calm Calm - N/A   Clear
11:53 PM 91.9 °F 90.6 °F 57.0 °F 31% 29.86 in 10.0 mi South 4.6 mph - N/A   Clear